This is the latest recevied weather packets stored in our database for station/object KE5KUL-13. If no packets are shown the sender has not sent any weather packets the latest 10 day(s).
| Time | Temp. | Humidity | Pressure | Rain* | Wind** | Luminosity | Snow |
|---|---|---|---|---|---|---|---|
| 1777435818 | 15° C | 42% | 1018.2 hPa | 0 mm | - | - | - |
| 1777435218 | 15° C | 41% | 1018 hPa | 0 mm | - | - | - |
| 1777434618 | 15.56° C | 40% | 1017.9 hPa | 0 mm | - | - | - |
| 1777434018 | 15.56° C | 39% | 1017.5 hPa | 0 mm | - | - | - |
| 1777433418 | 16.11° C | 38% | 1017.1 hPa | 0 mm | - | - | - |
| 1777432818 | 16.67° C | 37% | 1016.9 hPa | 0 mm | - | - | - |
| 1777432218 | 16.67° C | 35% | 1016.6 hPa | 0 mm | - | - | - |
| 1777431941 | 17.22° C | 34% | 1016.2 hPa | 0 mm | - | - | - |
| 1777428318 | 19.44° C | 29% | 1014.6 hPa | 0 mm | - | - | - |
| 1777427718 | 20° C | 29% | 1014.2 hPa | 0 mm | - | - | - |
| 1777427118 | 20.56° C | 28% | 1014.1 hPa | 0 mm | - | - | - |
| 1777426518 | 21.11° C | 28% | 1013.7 hPa | 0 mm | - | - | - |
| 1777425917 | 21.11° C | 27% | 1013.5 hPa | 0 mm | - | - | - |
| 1777425317 | 22.22° C | 26% | 1013.3 hPa | 0 mm | - | - | - |
| 1777424718 | 22.78° C | 26% | 1013 hPa | 0 mm | - | - | - |
| 1777424118 | 23.33° C | 24% | 1012.8 hPa | 0 mm | - | - | - |
| 1777423517 | 24.44° C | 23% | 1012.6 hPa | 0 mm | - | - | - |
| 1777422917 | 25.56° C | 21% | 1012.9 hPa | 0 mm | - | - | - |
| 1777422317 | 27.78° C | 19% | 1013.4 hPa | 0 mm | - | - | - |
| 1777421717 | 28.33° C | 7% | 1013.3 hPa | 0 mm | - | - | - |
| 1777421117 | 28.33° C | 6% | 1013 hPa | 0 mm | - | - | - |
| 1777420518 | 28.89° C | 7% | 1013.2 hPa | 0 mm | - | - | - |
| 1777419917 | 29.44° C | 7% | 1013.3 hPa | 0 mm | - | - | - |
| 1777419317 | 30° C | 7% | 1013.2 hPa | 0 mm | - | - | - |
| 1777418717 | 30° C | 7% | 1013.4 hPa | 0 mm | - | - | - |
* Rain latest hour (hover to see other rain measurements)
** Current wind speed in m/s (hover to see current wind gust speed)